Temperature
8 7 7 7 7 7 6 6 6 6 6 6 5 5 5 5 6 6 6 6 5 5 6 6 6 6 6 6 6 5 5 5 5 4 4 4 3 3
7 6 6 6 6 6 6 5 5 5 5 5 5 4 4 5 5 5 5 4 4 4 5 5 5 5 5 5 5 5 4 4 4 3 3 3 3 3
6 6 6 6 5 5 5 5 5 4 4 4 4 4 4 4 4 4 4 3 3 3 3 3 3 4 3 4 4 4 3 3 3 3 3 2 2 2
5 5 5 5 5 4 4 4 4 4 3 3 3 3 3 3 3 3 3 2 2 2 2 2 2 3 3 3 3 2 2 2 2 2 2 2 1 1
4 4 4 4 4 4 4 4 3 3 3 3 2 2 2 2 2 2 2 2 2 2 2 2 2 2 2 2 2 2 2 2 1 1 1 1 1 0
4 3 3 3 3 3 3 3 3 2 2 2 1 1 1 1 1 1 1 1 1 1 1 1 1 1 1 1 1 1 1 1 1 0 0 -0 -0 -0
3 3 3 3 3 2 2 2 2 1 1 0 0 -0 -1 -0 -1 -0 -0 -0 -0 -0 -0 -0 -0 0 0 0 0 0 -0 -0 -0 -1 -1 -1 -1 -1
3 2 2 2 2 2 1 1 1 0 0 -0 -1 -2 -2 -2 -2 -2 -2 -2 -3 -2 -1 -1 -1 -1 -1 -1 -1 -1 -1 -1 -1 -1 -1 -2 -2 -2
2 2 2 1 1 1 0 0 -0 -0 -1 -1 -2 -3 -3 -3 -3 -3 -3 -3 -3 -3 -2 -2 -3 -3 -2 -2 -2 -2 -2 -2 -2 -2 -2 -2 -3 -3
2 1 1 1 0 0 -0 -1 -1 -1 -1 -2 -3 -3 -3 -3 -4 -4 -4 -4 -4 -4 -3 -3 -4 -3 -3 -3 -2 -2 -2 -2 -2 -2 -3 -3 -3 -3
1 1 1 0 -0 -0 -1 -1 -2 -2 -2 -2 -3 -3 -3 -4 -4 -4 -5 -5 -5 -5 -4 -4 -4 -4 -3 -3 -3 -3 -3 -3 -3 -3 -3 -3 -3 -3
1 1 0 -0 -0 -1 -1 -2 -2 -3 -3 -3 -3 -4 -4 -4 -4 -5 -5 -5 -6 -6 -6 -5 -5 -5 -4 -4 -4 -4 -4 -4 -4 -4 -4 -4 -4 -4
0 0 -0 -0 -1 -1 -2 -2 -3 -3 -3 -4 -4 -4 -5 -5 -5 -5 -5 -6 -6 -6 -6 -6 -6 -6 -6 -5 -4 -4 -4 -4 -4 -4 -4 -4 -4 -4
0 -0 -0 -1 -1 -1 -2 -2 -3 -3 -4 -4 -5 -5 -5 -5 -5 -5 -6 -6 -6 -6 -6 -6 -6 -6 -6 -6 -5 -4 -4 -4 -4 -4 -4 -4 -4 -4
-0 -0 -1 -1 -1 -2 -2 -3 -3 -4 -4 -5 -5 -5 -5 -5 -6 -6 -6 -6 -6 -6 -6 -7 -7 -7 -7 -7 -6 -5 -5 -5 -5 -5 -5 -5 -5 -5
-1 -1 -1 -1 -2 -2 -2 -3 -3 -4 -4 -5 -5 -5 -6 -6 -6 -6 -6 -6 -6 -6 -6 -7 -7 -7 -7 -7 -7 -6 -6 -6 -5 -6 -6 -5 -5 -5
-1 -1 -1 -2 -2 -2 -3 -3 -4 -4 -4 -5 -5 -6 -6 -6 -6 -7 -7 -7 -7 -6 -7 -7 -7 -7 -7 -7 -7 -6 -6 -6 -6 -6 -6 -6 -5 -5
-1 -1 -2 -2 -2 -3 -3 -3 -4 -4 -5 -5 -5 -6 -6 -6 -7 -7 -7 -7 -7 -7 -7 -7 -8 -8 -7 -7 -6 -6 -6 -6 -6 -7 -7 -7 -6 -5
-2 -2 -2 -2 -2 -3 -3 -4 -4 -4 -5 -5 -6 -6 -6 -7 -7 -7 -7 -7 -7 -7 -7 -7 -8 -8 -9 -9 -8 -7 -7 -7 -7 -7 -7 -7 -7 -6
-2 -2 -2 -2 -3 -3 -3 -4 -4 -4 -5 -5 -6 -6 -6 -7 -7 -7 -7 -8 -8 -8 -7 -7 -8 -8 -9 -9 -9 -8 -7 -7 -8 -8 -8 -8 -7 -7
-2 -2 -2 -3 -3 -3 -3 -4 -4 -5 -5 -5 -6 -6 -7 -7 -7 -7 -8 -8 -8 -8 -8 -8 -8 -9 -9 -10 -9 -7 -7 -8 -8 -8 -8 -8 -8 -7
-2 -2 -3 -3 -3 -3 -4 -4 -4 -5 -5 -5 -6 -6 -7 -7 -7 -8 -8 -8 -8 -8 -8 -8 -9 -9 -9 -9 -9 -8 -8 -7 -8 -8 -8 -8 -9 -9
-3 -3 -3 -3 -3 -4 -4 -4 -4 -5 -5 -6 -6 -6 -7 -7 -8 -8 -8 -8 -9 -9 -9 -9 -9 -9 -9 -10 -10 -9 -8 -8 -8 -8 -7 -7 -8 -8
Wind_Speed
3 3 2 3 3 3 2 2 3 4 3 1 2 5 7 7 10 9 9 12 12 10 10 9 7 6 5 2 1 4 7 9 11 11 10 10 9 9
4 5 5 3 3 3 3 2 2 2 2 2 2 4 6 6 8 8 9 11 14 12 10 9 9 9 9 9 7 6 6 8 9 9 9 8 7 7
5 6 6 5 4 4 4 3 3 2 2 1 2 3 4 5 6 7 8 8 10 13 12 12 11 10 10 9 9 7 6 5 6 6 5 5 5 6
6 6 6 5 6 5 4 4 3 3 1 0 1 2 3 4 5 5 6 7 8 11 11 11 10 9 8 7 6 4 3 3 3 4 4 5 6 8
6 7 6 6 6 5 5 4 4 3 2 1 1 2 2 3 3 3 4 5 6 8 8 9 8 8 7 5 4 3 1 1 2 4 5 6 8 9
7 7 6 6 6 5 5 5 4 3 3 2 1 2 2 2 3 3 3 4 4 5 6 6 6 5 4 4 4 3 3 3 4 5 6 7 8 9
6 6 7 8 8 7 5 5 4 3 2 2 1 1 2 2 3 3 4 4 2 3 4 4 4 4 3 3 3 4 5 6 7 8 9 9 10 10
4 4 5 6 7 8 9 8 7 4 3 2 1 2 2 3 3 3 3 4 3 3 5 4 3 3 3 3 4 6 7 8 9 10 10 10 11 11
3 3 3 3 4 3 4 5 6 6 5 3 2 2 3 3 4 4 4 4 5 5 5 4 3 4 3 4 5 7 8 8 9 9 10 11 11 12
2 1 1 1 2 3 3 3 3 3 3 3 2 3 3 3 3 4 4 5 6 3 3 3 4 4 5 5 3 5 6 6 7 8 9 10 10 11
1 0 1 1 2 2 2 2 2 1 1 3 4 4 4 4 5 4 4 4 4 2 1 3 4 5 5 4 2 3 4 5 6 7 8 9 10 11
1 1 1 3 3 3 3 3 3 3 2 2 3 3 3 2 3 3 3 3 3 3 1 2 3 4 4 3 3 4 5 6 7 8 9 10 11 10
2 2 2 3 4 4 4 4 4 4 4 4 4 3 3 2 2 2 3 3 4 4 2 2 3 3 4 4 4 5 6 6 7 8 10 12 14 13
3 3 2 4 5 4 4 4 3 4 4 4 4 4 3 3 2 3 4 5 6 7 7 5 4 4 4 5 5 5 5 7 8 8 9 10 12 14
4 4 5 5 5 4 4 5 4 4 4 5 5 4 3 3 4 4 5 6 8 10 10 10 8 7 6 7 7 7 6 6 7 7 6 6 7 8
5 5 7 6 6 6 5 5 4 5 5 5 5 4 4 4 4 4 5 5 5 6 6 8 9 8 8 10 10 10 9 7 5 6 7 8 10 11
5 5 5 5 5 5 5 5 5 5 5 5 5 5 5 5 5 4 4 5 5 5 5 5 8 10 11 10 9 11 11 10 10 9 8 10 10 10
8 6 6 6 6 6 6 6 6 6 6 5 6 6 6 6 6 5 6 6 7 7 7 6 5 5 6 9 14 13 11 10 9 9 9 10 11 10
9 8 8 7 7 6 6 6 6 6 5 6 6 6 6 6 6 6 6 7 8 8 7 6 6 6 7 9 6 13 11 9 9 9 10 10 12 12
9 9 9 8 7 7 7 7 7 6 6 6 7 7 7 7 7 7 7 8 8 8 8 8 8 8 9 8 7 7 12 12 11 11 11 11 12 15
10 10 9 8 8 8 7 7 7 7 7 7 7 7 7 7 8 8 8 11 10 9 10 9 8 9 8 7 9 11 11 15 17 12 11 11 12 12
10 10 9 9 8 8 8 7 7 8 8 8 8 7 7 8 9 9 9 9 9 9 11 10 8 7 8 9 12 14 14 12 14 21 24 21 11 7
10 10 9 9 8 8 8 8 9 8 8 8 8 8 8 8 8 9 9 9 9 10 10 10 9 9 10 11 13 13 16 15 12 12 13 19 27 32
Wind_Direction
33 37 39 30 21 11 351 300 271 268 256 64 52 28 14 12 7 5 10 13 14 15 15 12 11 17 22 7 330 202 204 194 180 180 187 197 209 224
56 63 58 44 42 32 20 11 343 281 263 71 41 16 8 9 10 11 15 17 23 26 30 33 48 57 62 64 79 109 136 151 161 173 184 194 207 222
69 70 65 55 53 41 36 34 28 352 263 98 52 23 15 13 12 16 20 21 20 29 39 48 52 58 62 65 71 84 110 137 159 171 183 205 221 233
74 72 65 61 58 46 42 42 36 18 344 247 43 24 23 11 9 17 22 22 24 30 38 44 46 47 52 56 63 73 90 112 162 188 208 225 237 245
75 73 69 66 61 51 46 40 33 27 22 50 39 24 13 9 0 13 20 19 21 22 28 32 33 31 33 35 36 37 44 219 222 223 234 242 247 249
73 69 63 60 59 52 46 37 27 30 38 50 45 22 7 359 352 355 355 5 3 8 10 9 11 11 12 6 358 348 327 294 265 251 248 251 253 255
77 67 61 57 53 48 41 31 25 22 24 30 28 5 7 358 356 350 334 333 343 357 337 339 336 331 331 325 313 302 287 278 270 264 259 256 255 255
85 75 68 59 54 54 49 42 33 26 20 8 353 351 354 354 348 340 334 331 317 2 333 319 321 312 316 310 318 302 286 275 268 264 262 260 259 258
86 81 70 56 41 41 47 46 49 45 30 349 340 348 343 344 335 324 329 319 308 330 324 306 317 307 311 302 309 301 288 276 268 263 260 258 257 257
88 70 57 39 32 9 15 15 20 32 22 356 348 342 332 324 308 297 300 297 290 293 309 295 318 314 313 301 311 312 299 283 272 265 263 261 259 260
136 13 332 334 1 335 342 342 333 355 31 359 351 343 335 323 310 293 297 302 302 307 330 299 319 319 306 295 301 288 296 300 288 275 270 265 265 268
206 232 284 307 323 313 302 305 308 320 313 300 288 279 285 293 302 288 288 287 293 299 359 309 314 328 310 295 292 286 278 275 278 274 270 267 267 269
237 247 248 292 303 308 297 289 302 303 295 297 295 291 285 281 285 295 292 270 270 267 314 318 295 299 289 297 297 284 282 285 279 271 266 264 264 261
243 248 256 279 294 298 289 293 286 279 285 285 282 282 286 290 298 298 291 278 264 265 277 274 264 269 279 287 284 288 281 276 277 279 277 271 264 258
244 250 262 273 278 273 273 282 274 268 273 272 273 276 281 286 283 280 274 267 265 260 255 243 242 252 254 261 274 284 293 287 275 271 270 264 263 258
240 241 249 258 261 266 266 257 256 263 270 272 276 276 273 266 267 274 280 287 284 270 233 233 235 240 250 255 263 271 272 273 270 262 269 272 267 259
227 235 240 245 248 248 248 251 250 249 253 258 264 267 267 267 267 267 269 273 269 276 275 249 240 243 248 256 261 261 263 263 262 265 266 269 265 258
228 239 243 245 249 253 254 252 247 246 249 252 255 259 264 266 268 264 261 264 269 272 274 274 273 276 265 250 233 250 259 263 265 261 257 265 270 265
235 242 245 247 248 248 249 250 250 247 243 246 251 254 256 259 261 262 261 262 265 270 271 267 259 256 270 281 253 220 242 263 269 268 262 260 267 272
235 241 244 245 245 245 245 246 247 245 238 241 245 247 249 252 256 258 259 260 267 272 273 264 251 245 249 272 281 267 244 255 266 269 271 270 270 273
233 237 241 242 242 242 242 242 242 243 242 241 244 245 244 246 252 255 258 261 262 265 267 267 261 257 259 266 267 265 261 247 246 256 268 273 276 275
235 236 237 237 237 237 238 237 238 240 240 239 242 243 241 242 248 252 254 258 259 261 267 271 270 262 250 251 262 274 280 276 264 258 254 250 254 259
233 234 235 233 233 233 233 234 236 241 241 240 241 242 241 242 246 250 252 254 258 262 266 271 270 261 256 256 264 270 275 279 278 273 263 253 249 252
Height
1511 1511 1510 1510 1510 1509 1509 1510 1511 1509 1509 1507 1506 1505 1503 1502 1501 1500 1498 1497 1496 1495 1495 1495 1495 1494 1495 1495 1497 1499 1501 1503 1504 1507 1510 1512 1514 1516
1507 1507 1506 1506 1505 1505 1505 1505 1505 1506 1505 1503 1502 1501 1500 1499 1498 1496 1495 1494 1493 1492 1492 1492 1491 1491 1491 1492 1493 1494 1496 1498 1500 1503 1505 1507 1509 1511
1504 1504 1503 1503 1502 1502 1501 1501 1501 1501 1501 1500 1499 1498 1497 1496 1494 1493 1493 1492 1491 1490 1490 1489 1489 1489 1489 1490 1490 1491 1493 1495 1496 1498 1500 1502 1504 1506
1502 1501 1501 1500 1500 1499 1499 1498 1498 1498 1498 1497 1496 1495 1494 1493 1492 1491 1490 1489 1489 1488 1488 1487 1487 1487 1487 1488 1488 1489 1490 1491 1493 1494 1496 1498 1499 1500
1500 1499 1499 1498 1498 1497 1497 1496 1495 1495 1494 1494 1493 1492 1491 1490 1489 1488 1488 1487 1486 1486 1485 1485 1485 1485 1485 1485 1486 1486 1487 1488 1488 1489 1491 1492 1493 1494
1498 1498 1497 1496 1496 1495 1495 1494 1493 1493 1492 1491 1490 1490 1489 1488 1487 1486 1485 1485 1484 1483 1483 1482 1482 1481 1481 1482 1482 1482 1483 1483 1484 1484 1485 1486 1487 1488
1497 1497 1496 1495 1494 1494 1493 1492 1491 1491 1490 1489 1488 1488 1487 1486 1485 1484 1483 1482 1481 1480 1480 1479 1478 1478 1477 1477 1477 1477 1478 1478 1478 1479 1480 1480 1481 1482
1496 1496 1495 1494 1493 1492 1491 1490 1489 1489 1488 1487 1486 1486 1485 1484 1483 1482 1481 1480 1479 1478 1477 1476 1475 1474 1473 1473 1473 1473 1473 1473 1473 1474 1474 1475 1476 1477
1495 1494 1494 1493 1492 1491 1489 1488 1487 1486 1486 1486 1485 1484 1482 1481 1480 1479 1478 1478 1477 1475 1474 1473 1472 1471 1470 1469 1469 1469 1468 1468 1468 1469 1469 1470 1471 1472
1494 1493 1492 1491 1490 1489 1488 1487 1486 1484 1483 1483 1482 1481 1480 1479 1478 1478 1476 1475 1474 1473 1472 1471 1470 1469 1467 1466 1465 1465 1465 1465 1465 1465 1465 1466 1466 1467
1493 1492 1491 1490 1489 1487 1486 1485 1484 1483 1482 1480 1480 1479 1477 1477 1476 1475 1474 1473 1472 1472 1470 1469 1467 1466 1465 1463 1462 1462 1461 1461 1461 1461 1461 1461 1462 1462
1491 1490 1489 1488 1487 1485 1484 1483 1482 1481 1480 1478 1477 1476 1475 1474 1473 1473 1472 1471 1470 1469 1468 1467 1465 1464 1462 1461 1460 1459 1458 1458 1457 1457 1457 1457 1457 1457
1489 1488 1487 1486 1485 1483 1482 1481 1480 1479 1478 1476 1475 1474 1473 1472 1471 1470 1469 1469 1468 1467 1466 1464 1463 1461 1460 1458 1457 1456 1455 1454 1453 1452 1452 1451 1451 1451
1487 1486 1485 1484 1483 1481 1480 1479 1478 1477 1475 1474 1473 1471 1470 1469 1468 1467 1466 1465 1464 1463 1462 1461 1459 1458 1456 1454 1452 1451 1451 1449 1448 1447 1446 1445 1445 1445
1485 1484 1483 1481 1480 1479 1478 1476 1475 1474 1473 1471 1470 1469 1467 1466 1465 1463 1462 1461 1460 1459 1458 1457 1455 1454 1452 1450 1448 1446 1445 1444 1443 1442 1441 1440 1439 1438
1482 1481 1480 1478 1477 1476 1474 1473 1472 1471 1469 1468 1466 1465 1463 1462 1461 1459 1458 1457 1455 1454 1453 1452 1450 1449 1447 1445 1443 1441 1440 1438 1437 1436 1434 1433 1432 1431
1478 1477 1476 1475 1474 1472 1471 1470 1468 1467 1466 1464 1463 1461 1460 1458 1457 1455 1454 1452 1451 1449 1448 1447 1445 1443 1441 1440 1437 1435 1434 1432 1431 1429 1427 1425 1425 1424
1474 1473 1472 1471 1469 1468 1467 1466 1464 1463 1461 1460 1458 1457 1455 1454 1452 1451 1449 1448 1446 1444 1443 1441 1439 1437 1435 1432 1432 1429 1428 1426 1425 1423 1421 1418 1416 1416
1469 1468 1467 1466 1465 1464 1462 1461 1460 1458 1457 1455 1454 1452 1450 1449 1447 1445 1444 1442 1440 1439 1437 1436 1434 1432 1429 1426 1424 1423 1422 1420 1418 1416 1414 1411 1408 1407
1464 1463 1462 1461 1460 1459 1457 1456 1454 1453 1451 1450 1448 1447 1445 1443 1442 1440 1438 1437 1435 1433 1431 1429 1428 1426 1424 1421 1417 1415 1415 1413 1411 1408 1406 1403 1400 1399
1458 1457 1456 1455 1454 1453 1452 1450 1449 1447 1446 1444 1443 1441 1439 1438 1436 1434 1432 1430 1429 1426 1424 1423 1422 1420 1417 1414 1410 1406 1406 1405 1403 1401 1398 1395 1391 1389
1451 1451 1450 1449 1448 1447 1445 1444 1442 1441 1440 1438 1437 1435 1433 1432 1430 1428 1426 1424 1422 1420 1418 1416 1415 1412 1410 1407 1403 1400 1398 1397 1395 1392 1390 1388 1385 1380
1444 1444 1443 1442 1441 1440 1439 1437 1436 1434 1433 1432 1430 1428 1427 1425 1423 1421 1419 1417 1415 1413 1411 1409 1407 1405 1402 1399 1396 1392 1389 1387 1385 1383 1380 1379 1377 1373